ボク彗星

C/2022 J2 ( Bok )

English version
Home page
Updated on May 13, 2024

---------------------------------------------------------------------

・ プロフィール

発見日 2022年5月9日
発見光度 21.5等
発見者 Bok survey, Kitt Peak

・ 写真集

・ 軌道要素

Epoch 2023 Feb. 25.0 TT = JDT 2460000.5
T 2022 Oct. 27.07442 TT                                 Rudenko
q   1.8276158            (2000.0)            P               Q
z  +0.0108653      Peri.  133.07179     -0.39326972     +0.77794949
 +/-0.0000007      Node   252.55912     +0.62085728     +0.61781114
e   0.9801423      Incl.  149.09285     +0.67814097     -0.11447262
>From 131 observations 2022 May 9-2023 Jan. 8, mean residual 0".6.

・ 光度変化

        m1 = 15.5 + 5 logΔ + 10.0 log r

---------------------------------------------------------------------

軌道要素はM.P.E.C. 2023-A50に掲載されたものです。
光度グラフはComet for Windowsで作成したものです。

---------------------------------------------------------------------

Copyright(C) Seiichi Yoshida (comet@aerith.net). All rights reserved.